CW6617 Weather Reports


time (UTC)temp
C
wind
direction
speed
KPH
gust
KPH
rain 1hr
cm
rain 24hr
cm
rain mn
cm
humidity
%
barometer
mb
20260504224704 12 6 4.8 9.7 0.00 0.00 0.00 87 1014.6
20260504224204 12 68 3.2 8.0 0.00 0.00 0.00 86 1014.6
20260504223704 12 52 0.0 4.8 0.00 0.00 0.00 86 1014.7
20260504221704 12 16 3.2 9.7 0.00 0.00 0.00 85 1014.5
20260504221204 12 351 3.2 8.0 0.00 0.00 0.00 85 1014.6
20260504220704 12 5 1.6 12.9 0.00 0.00 0.00 85 1014.6
20260504214704 12 34 4.8 9.7 0.00 0.00 0.00 84 1014.7
20260504214204 12 2 1.6 8.0 0.00 0.00 0.00 84 1014.7
20260504213203 13 351 4.8 12.9 0.00 0.00 0.00 84 1014.8
20260504211204 13 45 1.6 9.7 0.00 0.00 0.00 84 1014.9
20260504210705 13 10 1.6 9.7 0.00 0.00 0.00 84 1014.8
20260504204703 13 20 4.8 19.3 0.00 0.00 0.00 84 1014.9
20260504204204 13 10 3.2 9.7 0.00 0.00 0.00 84 1014.8
20260504203704 13 22 4.8 12.9 0.00 0.00 0.00 84 1014.7
20260504203204 13 32 3.2 8.0 0.00 0.00 0.00 84 1014.6
20260504201704 13 58 4.8 11.3 0.00 0.00 0.00 83 1014.6
20260504201203 13 48 6.4 12.9 0.00 0.00 0.00 84 1014.6
20260504200204 13 28 3.2 9.7 0.00 0.00 0.00 83 1014.5
20260504194704 13 42 4.8 9.7 0.00 0.00 0.00 83 1014.3
20260504193704 13 55 1.6 3.2 0.00 0.00 0.00 83 1014.1
20260504193204 13 55 1.6 9.7 0.00 0.00 0.00 83 1014.1
20260504191204 14 55 1.6 8.0 0.00 0.00 0.00 83 1014.0
20260504190204 14 34 1.6 9.7 0.00 0.00 0.00 83 1014.0
20260504184703 14 49 3.2 8.0 0.00 0.00 0.00 83 1014.1
20260504184204 14 59 1.6 9.7 0.00 0.00 0.00 82 1014.0
20260504183703 14 56 4.8 9.7 0.00 0.00 0.00 82 1014.0
20260504183204 14 55 3.2 11.3 0.00 0.00 0.00 82 1014.0
20260504181704 14 50 4.8 9.7 0.00 0.00 0.00 81 1014.0
20260504181204 14 48 4.8 9.7 0.00 0.00 0.00 81 1013.8
20260504180703 14 58 4.8 9.7 0.00 0.00 0.00 81 1013.7
20260504180203 15 49 4.8 16.1 0.00 0.00 0.00 81 1013.7
20260504174704 15 94 3.2 14.5 0.00 0.00 0.00 80 1013.6
20260504173704 15 47 1.6 9.7 0.00 0.00 0.00 80 1013.5
20260504173204 15 30 6.4 20.9 0.00 0.00 0.00 79 1013.5
20260504171704 15 48 3.2 12.9 0.00 0.00 0.00 78 1013.5
20260504171204 15 52 6.4 14.5 0.00 0.00 0.00 78 1013.5
20260504170703 15 36 6.4 20.9 0.00 0.00 0.00 78 1013.6
20260504170204 16 46 9.7 20.9 0.00 0.00 0.00 77 1013.6
20260504160204 15 9 4.8 20.9 0.00 0.00 0.00 80 1013.9
20260504150203 16 66 8.0 19.3 0.00 0.00 0.00 78 1014.0
20260504141204 17 39 11.3 16.1 0.00 0.00 0.00 72 1014.1
20260504140704 16 55 4.8 12.9 0.00 0.00 0.00 74 1014.2
20260504130704 15 142 1.6 4.8 0.00 0.00 0.00 80 1014.3
20260504130204 15 85 3.2 14.5 0.00 0.00 0.00 80 1014.3
20260504120203 15 54 3.2 11.3 0.00 0.00 0.00 83 1014.4
20260504110704 14 42 3.2 9.7 0.00 0.00 0.00 85 1014.5
20260504110205 14 39 3.2 11.3 0.00 0.00 0.00 86 1014.5
20260504081703 12 341 3.2 9.7 0.00 0.00 0.00 91 1013.7
20260504081204 12 52 6.4 14.5 0.00 0.00 0.00 91 1013.7
20260504080704 12 357 4.8 16.1 0.00 0.00 0.00 91 1013.7
20260504080204 12 45 4.8 16.1 0.00 0.00 0.00 91 1013.7
20260504070204 12 96 3.2 8.0 0.00 0.00 0.00 92 1013.1
20260504060204 12 175 1.6 3.2 0.00 0.00 0.00 93 1012.6
20260504050704 12 175 0.0 0.0 0.00 0.00 0.00 93 1012.2
20260504044704 12 175 0.0 0.0 0.00 0.00 0.00 93 1012.0
20260504044204 12 175 0.0 0.0 0.00 0.00 0.00 93 1012.0
20260504043703 12 175 0.0 0.0 0.00 0.00 0.00 93 1012.0
20260504043204 12 175 0.0 0.0 0.00 0.00 0.00 93 1012.0
20260504041704 12 175 0.0 0.0 0.00 0.00 0.00 93 1012.1
20260504041204 12 175 0.0 0.0 0.00 0.00 0.00 93 1012.1
20260504040703 12 175 0.0 0.0 0.00 0.00 0.00 93 1012.0
20260504034203 12 175 0.0 0.0 0.00 0.00 0.00 93 1012.0
20260504033704 12 175 0.0 0.0 0.00 0.00 0.00 93 1012.0
20260504033204 12 175 0.0 1.6 0.00 0.00 0.00 93 1012.0
20260504031204 12 175 1.6 3.2 0.00 0.00 0.00 93 1012.1
20260504030704 12 175 0.0 3.2 0.00 0.00 0.00 93 1012.0
20260504030204 12 175 1.6 4.8 0.00 0.00 0.00 93 1012.0
20260504024704 12 175 1.6 4.8 0.00 0.00 0.00 93 1012.0
20260504024204 12 175 1.6 4.8 0.00 0.00 0.00 93 1012.0
20260504023704 12 175 1.6 3.2 0.00 0.00 0.00 93 1011.9
20260504023204 12 175 0.0 1.6 0.00 0.00 0.00 93 1011.9
20260504021704 12 175 0.0 1.6 0.00 0.00 0.00 93 1011.9
20260504021203 12 175 0.0 0.0 0.00 0.00 0.00 93 1011.9
20260504020204 12 175 1.6 3.2 0.00 0.00 0.00 93 1011.8
20260504014704 12 175 1.6 4.8 0.00 0.00 0.00 93 1011.8
20260504014203 12 177 3.2 8.0 0.00 0.00 0.00 93 1011.8
20260504013704 12 197 0.0 3.2 0.00 0.00 0.00 93 1011.8
20260504013204 12 197 3.2 4.8 0.00 0.00 0.00 93 1011.8
20260504011204 12 198 0.0 1.6 0.00 0.00 0.00 93 1011.7
20260504010203 12 198 0.0 4.8 0.00 0.00 0.00 92 1011.7
20260504004703 12 190 0.0 1.6 0.00 0.00 0.00 92 1011.7
20260504004204 12 190 0.0 1.6 0.00 0.00 0.00 92 1011.8
20260504003704 12 190 3.2 8.0 0.00 0.00 0.00 92 1011.8
20260504003204 12 192 1.6 4.8 0.00 0.00 0.00 92 1011.8
20260504001204 12 226 0.0 3.2 0.00 0.00 0.00 91 1011.7
20260504000703 12 227 1.6 8.0 0.00 0.00 0.00 91 1011.6
20260504000204 12 243 0.0 3.2 0.00 0.00 0.00 90 1011.6
20260503234704 12 250 0.0 3.2 0.00 0.00 0.00 90 1011.6
20260503234203 12 257 1.6 3.2 0.00 0.00 0.00 90 1011.6
20260503233704 12 234 1.6 4.8 0.00 0.00 0.00 90 1011.7
20260503233204 12 172 0.0 4.8 0.00 0.00 0.00 90 1011.6
20260503231703 12 171 1.6 4.8 0.00 0.00 0.00 89 1011.6
20260503231203 12 171 1.6 9.7 0.00 0.00 0.00 89 1011.5
20260503230704 12 171 4.8 9.7 0.00 0.00 0.00 89 1011.5
20260503230203 12 173 3.2 4.8 0.00 0.00 0.00 88 1011.5